{"data":{"norad_id":64296,"epoch":"2026-09-20T21:55:17.441184Z","epoch_age_seconds":101838,"freshness":"FRESH","line1":"1 64296U 25123F   26263.91339631  .00015867  00000+0  55505-3 0  9993","line2":"2 64296  69.9997  59.7416 0004107 280.7455  79.3258 15.29587715 72141","mean_motion":15.29587715,"eccentricity":0.0004107,"inclination_deg":69.9997,"raan_deg":59.7416,"arg_perigee_deg":280.7455,"mean_anomaly_deg":79.3258,"bstar":0.00055505,"rev_number":7214,"period_min":94.143015524938,"perigee_km":474.22842910023,"apogee_km":479.85927465196,"semimajor_km":6855.1808518761,"source":"CELESTRAK","updated_at":"2026-09-21T09:00:35.305752Z"}}